Location: Bushey
(51.6333°N, 0.3667°W)
Time: 08:18:21
(UTC+00:00)

SPOT 3 Rocket - Visible Passes

Search period start: 21 June 2021 00:00
Search period end: 01 July 2021 00:00
Orbit: 779 x 794 km, 98.7° (Epoch: 20 June)

Date Brightness Start Highest point End Pass type
(mag) Time Alt. Az. Time Alt. Az. Time Alt. Az.
21 Jun 6.0 22:24:12 10° WSW 22:26:38 13° W 22:29:05 10° WNW visible
22 Jun 5.5 21:51:38 10° SW 21:55:43 23° W 21:59:51 10° NW visible
23 Jun 4.8 21:20:06 10° SSW 21:24:57 39° W 21:29:51 10° NNW visible
24 Jun 6.1 22:33:06 10° WSW 22:34:43 11° W 22:36:20 10° WNW visible
25 Jun 5.7 21:59:58 10° SW 22:03:45 20° W 22:07:35 10° NW visible
26 Jun 5.0 21:28:15 10° SSW 21:32:57 34° W 21:37:43 10° NNW visible
28 Jun 5.9 22:08:22 10° SW 22:11:49 18° W 22:15:17 10° NW visible
29 Jun 5.2 21:36:26 10° SSW 21:40:58 30° W 21:45:33 10° NNW visible
30 Jun 4.3 21:05:13 10° S 21:10:16 52° W 21:15:23 10° NNW visible
